Flag for Colombia Weather past 2 weeks in Cartagena, Colombia

Now
82 °F

Partly cloudy.


Feels Like: 92 °F
Forecast: 82 / 90 °F
Wind: 5 mph from Northeast

Location: Cartagena / Rafael Nunez

Current Time: Sep 1, 2015 at 1:17:37 AM

Latest Report: Sep 1, 2015 at 1:00 AM


Visibility: N/A

Pressure: 29.83 "Hg

Humidity: 89%

Dew point: 79 °F

Location of CartagenaLocation

Historic Weather in Cartagena — Graph

°F

Cartagena temperature yesterday

Maximum temperature yesterday: 90 °F (at 1:00 PM)
Minimum temperature yesterday: 82 °F (at 2:00 AM)
Average temperature yesterday: 86 °F

Past Weeks' High & Low Weather Summary

 TemperatureHumidityPressure
High93 °F (Aug 19, 11:00 AM)100% (Aug 17, 6:00 AM)29.91 "Hg (Aug 17, 6:00 AM)
Low77 °F (Aug 26, 6:00 AM)59% (Aug 19, 11:00 AM)29.08 "Hg (Aug 17, 10:00 PM)
Average85 °F84%29.78 "Hg
* Reported Midnight between Aug 16 and Aug 17 — Midnight between Aug 31 and Sep 1, Cartagena, Weather by CustomWeather, © 2015

Note: Actual official high and low records may vary slightly from our data, if they occured in-between our weather recording intervals... More about our weather records

Advertising

Cartagena weather history for previous 24 hours

 ConditionsComfort  
Time TempWeatherWind HumidityBarometerVisibility
12:00 AM
Tue, Sep 1
82 °FPartly cloudy.No wind94%29.85 "HgN/A
10:00 PM
Mon, Aug 31
84 °FPassing clouds.6 mph84%29.86 "HgN/A
9:00 PM86 °FPassing clouds.5 mph79%29.81 "HgN/A
8:00 PM86 °FPassing clouds.7 mph84%29.81 "HgN/A
7:00 PM86 °FPassing clouds.6 mph84%29.81 "HgN/A
6:00 PM88 °FBroken clouds.8 mph79%29.79 "HgN/A
5:00 PM88 °FOvercast.8 mph84%29.77 "HgN/A
4:00 PM90 °FScattered clouds.9 mph79%29.77 "HgN/A
3:00 PM88 °FPartly sunny.8 mph79%29.79 "HgN/A
2:00 PM88 °FBroken clouds.9 mph79%29.81 "HgN/A
1:00 PM90 °FPartly sunny.7 mph75%29.82 "HgN/A
12:00 PM88 °FScattered clouds.5 mph75%29.84 "Hg5 mi
11:00 AM88 °FScattered clouds.5 mph79%29.86 "Hg5 mi
10:00 AM88 °FScattered clouds.5 mph79%29.86 "Hg5 mi
9:00 AM86 °FScattered clouds.5 mph84%29.86 "Hg5 mi
8:00 AM84 °FScattered clouds.5 mph89%29.85 "Hg4 mi
7:00 AM82 °FScattered clouds.5 mph94%29.81 "Hg5 mi
6:00 AM82 °FScattered clouds.2 mph100%29.80 "Hg4 mi
5:00 AM82 °FPartly cloudy.2 mph100%29.80 "HgN/A
4:00 AM82 °FPartly cloudy.No wind94%29.78 "HgN/A
3:00 AM82 °FPassing clouds.No wind100%29.79 "HgN/A
2:00 AM82 °FOvercast.No wind94%29.81 "HgN/A
1:00 AM84 °FClear.No wind89%29.81 "Hg10 mi
Weather by CustomWeather, © 2015

See weather overviewHow to use our weather pages